Stündliche Wetter Otochka

Heute, 15 April, Donnerstag

Zeit Temperatur Niederschläge Wind Luftdruck Luftfeuchtigkeit
00:00 +8°C° 0 mm 1 m/S 747 mmHg 95%
01:00 +8°C° 0 mm 1 m/S 747 mmHg 95%
02:00 +8°C° 0 mm 1 m/S 747 mmHg 94%
03:00 +8°C° 0 mm 1 m/S 747 mmHg 94%
04:00 +8°C° 0 mm 1 m/S 747 mmHg 93%
05:00 +8°C° 0 mm 1 m/S 747 mmHg 92%
06:00 +8°C° 0 mm 2 m/S 747 mmHg 90%
07:00 +9°C° 0 mm 2 m/S 747 mmHg 88%
08:00 +9°C° 0 mm 2 m/S 747 mmHg 86%
09:00 +9°C° 0.2 mm 3 m/S 747 mmHg 86%
10:00 +9°C° 0.2 mm 3 m/S 747 mmHg 86%
11:00 +8°C° 0.2 mm 4 m/S 747 mmHg 86%
12:00 +8°C° 0.7 mm 4 m/S 747 mmHg 88%
13:00 +7°C° 0.7 mm 4 m/S 747 mmHg 90%
14:00 +6°C° 0.7 mm 4 m/S 746 mmHg 93%
15:00 +6°C° 0.6 mm 4 m/S 746 mmHg 93%
16:00 +6°C° 0.6 mm 4 m/S 746 mmHg 93%
17:00 +5°C° 0.6 mm 4 m/S 746 mmHg 93%
18:00 +6°C° 0.2 mm 4 m/S 745 mmHg 94%
19:00 +6°C° 0.2 mm 4 m/S 745 mmHg 95%
20:00 +7°C° 0.2 mm 3 m/S 745 mmHg 95%
21:00 +7°C° 0.4 mm 3 m/S 745 mmHg 96%
22:00 +7°C° 0.4 mm 3 m/S 745 mmHg 96%
23:00 +7°C° 0.4 mm 2 m/S 745 mmHg 97%

Morgen, 16 April, Freitag

Zeit Temperatur Niederschläge Wind Luftdruck Luftfeuchtigkeit
00:00 +7°C° 0 mm 2 m/S 745 mmHg 97%
01:00 +7°C° 0 mm 2 m/S 745 mmHg 97%
02:00 +7°C° 0 mm 2 m/S 745 mmHg 97%
03:00 +7°C° 0 mm 2 m/S 745 mmHg 97%
04:00 +6°C° 0 mm 2 m/S 745 mmHg 97%
05:00 +6°C° 0 mm 2 m/S 745 mmHg 97%
06:00 +6°C° 0.2 mm 2 m/S 745 mmHg 94%
07:00 +7°C° 0.2 mm 2 m/S 745 mmHg 92%
08:00 +8°C° 0.2 mm 3 m/S 745 mmHg 89%
09:00 +9°C° 0.5 mm 3 m/S 745 mmHg 86%
10:00 +10°C° 0.5 mm 4 m/S 745 mmHg 82%
11:00 +11°C° 0.5 mm 4 m/S 746 mmHg 78%
12:00 +10°C° 0.3 mm 5 m/S 746 mmHg 73%
13:00 +11°C° 0.3 mm 6 m/S 746 mmHg 69%
14:00 +11°C° 0.3 mm 6 m/S 746 mmHg 64%
15:00 +12°C° 0 mm 5 m/S 746 mmHg 66%
16:00 +12°C° 0 mm 4 m/S 747 mmHg 68%
17:00 +11°C° 0 mm 3 m/S 747 mmHg 70%
18:00 +10°C° 0.1 mm 2 m/S 747 mmHg 76%
19:00 +9°C° 0.1 mm 2 m/S 748 mmHg 82%
20:00 +9°C° 0.1 mm 1 m/S 748 mmHg 88%
21:00 +8°C° 0.1 mm 1 m/S 748 mmHg 90%
22:00 +8°C° 0.1 mm 1 m/S 748 mmHg 91%
23:00 +7°C° 0.1 mm 0 m/S 748 mmHg 92%

übermorgen, 17 April, Samstag

Zeit Temperatur Niederschläge Wind Luftdruck Luftfeuchtigkeit
00:00 +8°C° 0 mm 1 m/S 749 mmHg 92%
01:00 +8°C° 0 mm 1 m/S 749 mmHg 92%
02:00 +7°C° 0 mm 1 m/S 749 mmHg 93%
03:00 +7°C° 0 mm 1 m/S 749 mmHg 93%
04:00 +7°C° 0 mm 1 m/S 750 mmHg 93%
05:00 +7°C° 0 mm 1 m/S 750 mmHg 93%
06:00 +8°C° 0 mm 1 m/S 750 mmHg 91%
07:00 +8°C° 0 mm 1 m/S 750 mmHg 89%
08:00 +9°C° 0 mm 1 m/S 751 mmHg 87%
09:00 +10°C° 0.1 mm 1 m/S 751 mmHg 80%
10:00 +12°C° 0.1 mm 2 m/S 751 mmHg 74%
11:00 +13°C° 0.1 mm 2 m/S 751 mmHg 67%
12:00 +13°C° 0.3 mm 2 m/S 751 mmHg 65%
13:00 +12°C° 0.3 mm 3 m/S 751 mmHg 63%
14:00 +13°C° 0.3 mm 3 m/S 751 mmHg 61%
15:00 +13°C° 0.1 mm 3 m/S 751 mmHg 63%
16:00 +13°C° 0.1 mm 2 m/S 751 mmHg 65%
17:00 +13°C° 0.1 mm 2 m/S 751 mmHg 67%
18:00 +12°C° 0 mm 2 m/S 752 mmHg 73%
19:00 +9°C° 0 mm 2 m/S 752 mmHg 79%
20:00 +8°C° 0 mm 2 m/S 752 mmHg 85%
21:00 +8°C° 0 mm 2 m/S 752 mmHg 86%
22:00 +7°C° 0 mm 2 m/S 753 mmHg 86%
23:00 +7°C° 0 mm 2 m/S 753 mmHg 87%

18 April, Sonntag

Zeit Temperatur Niederschläge Wind Luftdruck Luftfeuchtigkeit
00:00 +7°C° 0.2 mm 2 m/S 753 mmHg 87%
01:00 +7°C° 0.2 mm 2 m/S 753 mmHg 87%
02:00 +7°C° 0.2 mm 2 m/S 753 mmHg 87%
03:00 +7°C° 0 mm 1 m/S 753 mmHg 88%
04:00 +7°C° 0 mm 1 m/S 753 mmHg 88%
05:00 +6°C° 0 mm 1 m/S 753 mmHg 89%
06:00 +7°C° 0 mm 1 m/S 753 mmHg 85%
07:00 +8°C° 0 mm 1 m/S 753 mmHg 80%
08:00 +9°C° 0 mm 1 m/S 753 mmHg 76%
09:00 +10°C° 0 mm 1 m/S 753 mmHg 70%
10:00 +11°C° 0 mm 1 m/S 753 mmHg 63%
11:00 +13°C° 0 mm 1 m/S 754 mmHg 57%
12:00 +13°C° 0 mm 1 m/S 753 mmHg 54%
13:00 +14°C° 0 mm 1 m/S 753 mmHg 51%
14:00 +15°C° 0 mm 1 m/S 753 mmHg 48%
15:00 +15°C° 0 mm 2 m/S 753 mmHg 52%
16:00 +13°C° 0 mm 3 m/S 753 mmHg 56%
17:00 +13°C° 0 mm 3 m/S 753 mmHg 60%
18:00 +11°C° 0 mm 3 m/S 753 mmHg 68%
19:00 +10°C° 0 mm 3 m/S 753 mmHg 77%
20:00 +9°C° 0 mm 3 m/S 754 mmHg 85%
21:00 +8°C° 0 mm 3 m/S 753 mmHg 86%
22:00 +8°C° 0 mm 3 m/S 753 mmHg 88%
23:00 +8°C° 0 mm 2 m/S 753 mmHg 90%

19 April, Montag

Zeit Temperatur Niederschläge Wind Luftdruck Luftfeuchtigkeit
00:00 +8°C° 0 mm 3 m/S 753 mmHg 90%
01:00 +8°C° 0 mm 3 m/S 753 mmHg 91%
02:00 +8°C° 0 mm 3 m/S 753 mmHg 91%
03:00 +8°C° 0 mm 3 m/S 753 mmHg 92%
04:00 +7°C° 0 mm 3 m/S 752 mmHg 94%
05:00 +7°C° 0 mm 3 m/S 752 mmHg 95%
06:00 +8°C° 0.1 mm 3 m/S 752 mmHg 92%
07:00 +8°C° 0.1 mm 4 m/S 752 mmHg 89%
08:00 +10°C° 0.1 mm 4 m/S 752 mmHg 85%
09:00 +9°C° 0.3 mm 5 m/S 751 mmHg 83%
10:00 +10°C° 0.3 mm 5 m/S 751 mmHg 81%
11:00 +10°C° 0.3 mm 5 m/S 751 mmHg 79%
12:00 +11°C° 0.1 mm 6 m/S 751 mmHg 74%
13:00 +13°C° 0.1 mm 6 m/S 750 mmHg 68%
14:00 +12°C° 0.1 mm 7 m/S 750 mmHg 63%
15:00 +12°C° 0.2 mm 7 m/S 749 mmHg 65%
16:00 +11°C° 0.2 mm 7 m/S 749 mmHg 67%
17:00 +11°C° 0.2 mm 7 m/S 749 mmHg 69%
18:00 +10°C° 0.6 mm 6 m/S 748 mmHg 76%
19:00 +9°C° 0.6 mm 5 m/S 748 mmHg 83%
20:00 +8°C° 0.6 mm 5 m/S 748 mmHg 90%
21:00 +8°C° 0.4 mm 5 m/S 747 mmHg 89%
22:00 +8°C° 0.4 mm 6 m/S 746 mmHg 89%
23:00 +8°C° 0.4 mm 6 m/S 746 mmHg 89%

20 April, Dienstag

Zeit Temperatur Niederschläge Wind Luftdruck Luftfeuchtigkeit
00:00 +8°C° 0.3 mm 7 m/S 745 mmHg 89%
01:00 +8°C° 0.3 mm 7 m/S 745 mmHg 89%
02:00 +7°C° 0.3 mm 8 m/S 744 mmHg 89%
03:00 +7°C° 1 mm 8 m/S 743 mmHg 89%
04:00 +6°C° 1 mm 8 m/S 743 mmHg 90%
05:00 +6°C° 1 mm 8 m/S 742 mmHg 91%
06:00 +5°C° 1.5 mm 8 m/S 741 mmHg 91%
07:00 +5°C° 1.5 mm 8 m/S 741 mmHg 91%
08:00 +4°C° 1.5 mm 8 m/S 740 mmHg 91%
09:00 +4°C° 0.6 mm 8 m/S 739 mmHg 91%
10:00 +2°C° 0.6 mm 8 m/S 739 mmHg 92%
11:00 +2°C° 0.6 mm 8 m/S 738 mmHg 92%
12:00 +2°C° 0.6 mm 8 m/S 738 mmHg 93%
13:00 +2°C° 0.6 mm 7 m/S 737 mmHg 94%
14:00 +2°C° 0.6 mm 7 m/S 737 mmHg 95%
15:00 +2°C° 1.7 mm 7 m/S 736 mmHg 95%
16:00 +2°C° 1.7 mm 7 m/S 736 mmHg 95%
17:00 0°C° 1.7 mm 7 m/S 736 mmHg 95%
18:00 +2°C° 0.5 mm 6 m/S 735 mmHg 95%
19:00 +2°C° 0.5 mm 6 m/S 735 mmHg 95%
20:00 +3°C° 0.5 mm 5 m/S 735 mmHg 95%
21:00 +5°C° 0.1 mm 5 m/S 734 mmHg 95%
22:00 +5°C° 0.1 mm 5 m/S 734 mmHg 95%
23:00 +6°C° 0.1 mm 4 m/S 734 mmHg 96%
Mehr zeigen

Wir brauchen deine Erlaubnis

Meteoprog und unser Service Anbieter werden persönliche Daten aufbewahren, so wie Cookies, Geräte Bezeichnung oder ähnliche Technologien von deinem Gerät und Prozess, so wie Persönliche Daten Inhalte und Werbungen, genauso wie social Media und den Verkehr zu analysieren.

  • Aufbewahrung und/oder Zugang zu deiner Geräte Informationen.

    Cookies, Geräte Bezeichnung oder andere Informationen, können aufbewahrt oder Zugang zu deinem Gerät erhalten, für den Grund, der oben angegeben wird.

  • Personalisierte Werbung und Inhalte, Messungen, Einblick in das Publikum und Produkt Entwicklung.

    Werbungen und Inhalte können personalisiert werden, basierend auf ein Profil. Mehr Daten können besser personalisierte Werbungen und Inhalte hinzufügen. Werbung und Inhalte können gezeigt und gemessen werden. Einblicke über das Publikum, welche die Werbung gesehen haben und den Inhalt, können abgeleitet werden. So wie Daten können genutzt werden, um es zu verbessern oder die Benutzer Erfahrung zu verbessern das System und die Software.

Wenn du “Ich stimme zu” klickst, erlaubst du uns, die Cookies zu benutzen die Geräte Bezeichnung, den Web oder ähnliche Technologien zu benutzen. Deine Settings, können in deinem Gerät bei deinem Browser geändert werden.

Für den bestimmten Zweck, berechtigten Interessen beruhen darauf, mehr als auf den Inhalt. Du kannst mehr darüber in unseren Privaten und Cookie Politik lesen.